,,,PA_Meas_PMT16A,,PR_Meas_QMR101_102,,RH_Meas_QMH101,,SR_Meas_QMS101,,TA_Meas_QMH101,,GenWind,,GenWind,
date,time,status,PA,status,PR,status,RH,status,SR,status,TA,status,DirAvg,status,SpdAvg,
2009-03-19, 00:00:05,VALID,1004.08,VALID,0,VALID,84.8942,VALID,0.100563,VALID,25.7674,VALID,329,VALID,1.15117,
2009-03-19, 00:01:05,VALID,1004.13,VALID,0,VALID,84.9934,VALID,0,VALID,25.748,VALID,291,VALID,2.45,
2009-03-19, 00:02:05,VALID,1004.11,VALID,0,VALID,85.3901,VALID,0,VALID,25.6876,VALID,275,VALID,1.27188,
2009-03-19, 00:03:05,VALID,1004.13,VALID,0,VALID,85.6342,VALID,0.100563,VALID,25.6486,VALID,275,VALID,1.32852,
2009-03-19, 00:04:05,VALID,1004.17,VALID,0,VALID,85.9241,VALID,0,VALID,25.6292,VALID,269,VALID,1.08555,
2009-03-19, 00:05:05,VALID,1004.16,VALID,0,VALID,86.0233,VALID,0,VALID,25.6116,VALID,281,VALID,1.10586,
2009-03-19, 00:06:05,VALID,1004.19,VALID,0,VALID,86.5191,VALID,0,VALID,25.5513,VALID,283,VALID,1.475,
2009-03-19, 00:07:05,VALID,1004.2,VALID,0,VALID,86.3055,VALID,0.100563,VALID,25.4734,VALID,304,VALID,2.93984,
2009-03-19, 00:08:05,VALID,1004.24,VALID,0,VALID,87.549,VALID,0.100563,VALID,25.2981,VALID,267,VALID,1.79336,
2009-03-19, 00:09:05,VALID,1004.26,VALID,0,VALID,88.1059,VALID,0.100563,VALID,25.1229,VALID,271,VALID,1.83164,
2009-03-19, 00:10:05,VALID,1004.25,VALID,0.5,VALID,88.5408,VALID,0.100563,VALID,24.8873,VALID,284,VALID,3.45078,
2009-03-19, 00:11:05,VALID,1004.26,VALID,0,VALID,89.2808,VALID,0,VALID,24.7353,VALID,268,VALID,3.15781,
2009-03-19, 00:12:05,VALID,1004.27,VALID,0,VALID,89.9826,VALID,0,VALID,24.5582,VALID,286,VALID,1.74727,
2009-03-19, 00:13:05,VALID,1004.28,VALID,0,VALID,90.6464,VALID,0,VALID,24.4822,VALID,319,VALID,1.16055,
2009-03-19, 00:14:05,VALID,1004.27,VALID,0,VALID,91.0812,VALID,0,VALID,24.4025,VALID,293,VALID,1.13086,
2009-03-19, 00:15:05,VALID,1004.28,VALID,0,VALID,91.5313,VALID,0,VALID,24.3849,VALID,309,VALID,1.56484,
2009-03-19, 00:16:05,VALID,1004.28,VALID,0,VALID,91.8822,VALID,0,VALID,24.3654,VALID,279,VALID,1.36797,
2009-03-19, 00:17:05,VALID,1004.22,VALID,0,VALID,92.1416,VALID,0,VALID,24.3246,VALID,301,VALID,1.17305,
2009-03-19, 00:18:05,VALID,1004.16,VALID,0.5,VALID,92.3857,VALID,0,VALID,24.3459,VALID,10,VALID,0.857031,
2009-03-19, 00:19:05,VALID,1004.16,VALID,0,VALID,92.5841,VALID,0,VALID,24.3654,VALID,352,VALID,0.412891,
2009-03-19, 00:20:05,VALID,1004.16,VALID,0,VALID,92.6146,VALID,0,VALID,24.3459,VALID,323,VALID,1.38047,
2009-03-19, 00:21:05,VALID,1004.14,VALID,0,VALID,92.729,VALID,0,VALID,24.3459,VALID,312,VALID,0.68125,
2009-03-19, 00:22:05,VALID,1004.09,VALID,0,VALID,92.8358,VALID,0,VALID,24.3459,VALID,7,VALID,0.38125,
2009-03-19, 00:23:05,VALID,1004.07,VALID,0,VALID,92.8969,VALID,0,VALID,24.3246,VALID,286,VALID,1.36953,
2009-03-19, 00:24:05,VALID,1004.07,VALID,0,VALID,92.813,VALID,0,VALID,24.307,VALID,308,VALID,0.962109,
2009-03-19, 00:25:05,VALID,1004.07,VALID,0,VALID,92.5917,VALID,0,VALID,24.2662,VALID,277,VALID,1.66133,
2009-03-19, 00:26:05,VALID,1004.08,VALID,0,VALID,92.462,VALID,0,VALID,24.1884,VALID,310,VALID,0.541406,
2009-03-19, 00:27:05,VALID,1004.06,VALID,0.5,VALID,92.401,VALID,0,VALID,24.1689,VALID,340,VALID,0.571484,
2009-03-19, 00:28:05,VALID,1004.06,VALID,0,VALID,91.7678,VALID,0,VALID,24.0892,VALID,300,VALID,1.79219,
2009-03-19, 00:29:05,VALID,1004.07,VALID,0,VALID,91.5847,VALID,0,VALID,24.0716,VALID,325,VALID,1.00664,
2009-03-19, 00:30:05,VALID,1004.07,VALID,0,VALID,91.6076,VALID,0,VALID,24.0521,VALID,85,VALID,1.04141,
2009-03-19, 00:31:05,VALID,1004.08,VALID,0,VALID,91.1956,VALID,0,VALID,24.0132,VALID,311,VALID,2.4043,
2009-03-19, 00:32:05,VALID,1004.07,VALID,0,VALID,91.1956,VALID,0,VALID,23.9937,VALID,296,VALID,2.43516,
2009-03-19, 00:33:05,VALID,1004.06,VALID,0,VALID,91.4169,VALID,0,VALID,23.9742,VALID,339,VALID,1.06484,
2009-03-19, 00:34:05,VALID,1004.04,VALID,0,VALID,91.188,VALID,0,VALID,23.9353,VALID,346,VALID,1.71523,
2009-03-19, 00:35:05,VALID,1004.02,VALID,0,VALID,91.127,VALID,0,VALID,23.8964,VALID,318,VALID,0.889844,
2009-03-19, 00:36:05,VALID,1004,VALID,0,VALID,91.3406,VALID,0,VALID,23.8964,VALID,333,VALID,0.9,
2009-03-19, 00:37:05,VALID,1003.97,VALID,0,VALID,91.4092,VALID,0,VALID,23.8769,VALID,3,VALID,0.808203,
2009-03-19, 00:38:05,VALID,1003.97,VALID,0,VALID,91.4169,VALID,0,VALID,23.838,VALID,347,VALID,0.922266,
2009-03-19, 00:39:05,VALID,1003.94,VALID,0,VALID,91.4626,VALID,0,VALID,23.8398,VALID,342,VALID,0.776172,
2009-03-19, 00:40:05,VALID,1003.95,VALID,0,VALID,91.3635,VALID,0,VALID,23.8398,VALID,8,VALID,1.17734,
2009-03-19, 00:41:05,VALID,1003.95,VALID,0,VALID,91.4932,VALID,0,VALID,23.8185,VALID,16,VALID,0.404297,
2009-03-19, 00:42:05,VALID,1003.93,VALID,0,VALID,91.5008,VALID,0,VALID,23.8185,VALID,245,VALID,0.675781,
2009-03-19, 00:43:05,VALID,1003.94,VALID,0,VALID,91.3482,VALID,0,VALID,23.7796,VALID,353,VALID,1.0125,
2009-03-19, 00:44:05,VALID,1003.92,VALID,0,VALID,91.4779,VALID,0,VALID,23.8009,VALID,321,VALID,1.13437,
2009-03-19, 00:45:05,VALID,1003.94,VALID,0,VALID,91.3482,VALID,0,VALID,23.7619,VALID,322,VALID,1.30156,
2009-03-19, 00:46:05,VALID,1003.99,VALID,0,VALID,91.4932,VALID,0,VALID,23.7407,VALID,325,VALID,1.03125,
2009-03-19, 00:47:05,VALID,1003.99,VALID,0,VALID,91.2643,VALID,0,VALID,23.7425,VALID,283,VALID,1.45625,
2009-03-19, 00:48:05,VALID,1004.07,VALID,0,VALID,91.3177,VALID,0,VALID,23.7035,VALID,256,VALID,0.867188,
2009-03-19, 00:49:05,VALID,1004.06,VALID,0,VALID,90.5319,VALID,0,VALID,23.6239,VALID,297,VALID,2.06133,
2009-03-19, 00:50:05,VALID,1004.09,VALID,0.5,VALID,90.6082,VALID,0,VALID,23.585,VALID,8,VALID,0.580078,
2009-03-19, 00:51:05,VALID,1004.05,VALID,0,VALID,90.3336,VALID,0,VALID,23.5868,VALID,298,VALID,1.45156,
2009-03-19, 00:52:05,VALID,1004.02,VALID,0,VALID,90.3107,VALID,0,VALID,23.5478,VALID,285,VALID,2.0707,
2009-03-19, 00:53:05,VALID,1004.01,VALID,0,VALID,90.6311,VALID,0,VALID,23.546,VALID,341,VALID,0.807813,
2009-03-19, 00:54:05,VALID,1003.97,VALID,0,VALID,90.7532,VALID,0,VALID,23.4877,VALID,329,VALID,0.885938,
2009-03-19, 00:55:05,VALID,1003.93,VALID,0,VALID,90.9973,VALID,0,VALID,23.4682,VALID,307,VALID,0.560547,
2009-03-19, 00:56:05,VALID,1003.91,VALID,0,VALID,91.2033,VALID,0,VALID,23.47,VALID,276,VALID,0.745313,
2009-03-19, 00:57:05,VALID,1003.92,VALID,0,VALID,91.3558,VALID,0,VALID,23.4505,VALID,283,VALID,1.27578,
2009-03-19, 00:58:05,VALID,1003.89,VALID,0,VALID,91.5313,VALID,0,VALID,23.4505,VALID,342,VALID,0.571094,
2009-03-19, 00:59:05,VALID,1003.91,VALID,0,VALID,91.8288,VALID,0,VALID,23.47,VALID,71,VALID,0.6125,
2009-03-19, 01:00:05,VALID,1003.87,VALID,0,VALID,91.7907,VALID,0,VALID,23.4682,VALID,294,VALID,0.905469,
2009-03-19, 01:01:05,VALID,1003.86,VALID,0.5,VALID,92.0043,VALID,0,VALID,23.4894,VALID,329,VALID,0.380469,
2009-03-19, 01:02:05,VALID,1003.85,VALID,0,VALID,92.0501,VALID,0,VALID,23.4894,VALID,290,VALID,1.0625,
2009-03-19, 01:03:05,VALID,1003.84,VALID,0,VALID,92.0272,VALID,0.100563,VALID,23.4682,VALID,308,VALID,1.13359,
2009-03-19, 01:04:05,VALID,1003.82,VALID,0,VALID,92.1874,VALID,0.100563,VALID,23.4487,VALID,305,VALID,0.985547,
2009-03-19, 01:05:05,VALID,1003.78,VALID,0,VALID,92.3629,VALID,0,VALID,23.4487,VALID,278,VALID,0.79375,
2009-03-19, 01:06:05,VALID,1003.74,VALID,0,VALID,92.4849,VALID,0,VALID,23.4894,VALID,337,VALID,0.634375,
2009-03-19, 01:07:05,VALID,1003.74,VALID,0,VALID,92.5383,VALID,0.100563,VALID,23.4682,VALID,313,VALID,0.451562,
2009-03-19, 01:08:05,VALID,1003.77,VALID,0,VALID,92.6375,VALID,0.100563,VALID,23.4487,VALID,341,VALID,0.526172,
2009-03-19, 01:09:05,VALID,1003.72,VALID,0.5,VALID,92.6985,VALID,0,VALID,23.4487,VALID,301,VALID,1.07734,
2009-03-19, 01:10:05,VALID,1003.74,VALID,0,VALID,92.7748,VALID,0,VALID,23.4293,VALID,329,VALID,0.575781,
2009-03-19, 01:11:05,VALID,1003.73,VALID,0,VALID,92.9426,VALID,0,VALID,23.4682,VALID,335,VALID,0.308594,
2009-03-19, 01:12:05,VALID,1003.71,VALID,0,VALID,92.9808,VALID,0,VALID,23.4682,VALID,297,VALID,0.676562,
2009-03-19, 01:13:05,VALID,1003.67,VALID,0,VALID,93.0266,VALID,0,VALID,23.447,VALID,281,VALID,0.741016,
2009-03-19, 01:14:05,VALID,1003.66,VALID,0,VALID,93.0952,VALID,0,VALID,23.4682,VALID,272,VALID,0.619141,
2009-03-19, 01:15:05,VALID,1003.64,VALID,0,VALID,93.0647,VALID,0.100563,VALID,23.4682,VALID,341,VALID,1.04648,
2009-03-19, 01:16:05,VALID,1003.62,VALID,0,VALID,93.1944,VALID,0,VALID,23.4682,VALID,303,VALID,0.545703,
2009-03-19, 01:17:05,VALID,1003.61,VALID,0.5,VALID,93.2936,VALID,0.100563,VALID,23.4664,VALID,112,VALID,0.367188,
2009-03-19, 01:18:05,VALID,1003.57,VALID,0,VALID,93.3165,VALID,0,VALID,23.4682,VALID,263,VALID,0.530078,
2009-03-19, 01:19:05,VALID,1003.56,VALID,0,VALID,93.3394,VALID,0.100563,VALID,23.4682,VALID,354,VALID,0.416016,
2009-03-19, 01:20:05,VALID,1003.57,VALID,0,VALID,93.3851,VALID,0,VALID,23.4682,VALID,317,VALID,1.06602,
2009-03-19, 01:21:05,VALID,1003.55,VALID,0,VALID,93.4233,VALID,0.100563,VALID,23.4682,VALID,325,VALID,0.699219,
2009-03-19, 01:22:05,VALID,1003.49,VALID,0,VALID,93.4462,VALID,0.100563,VALID,23.4877,VALID,338,VALID,0.644531,
2009-03-19, 01:23:05,VALID,1003.53,VALID,0,VALID,93.4538,VALID,0.100563,VALID,23.4682,VALID,343,VALID,0.512891,
2009-03-19, 01:24:05,VALID,1003.54,VALID,0,VALID,93.5453,VALID,0,VALID,23.4877,VALID,352,VALID,0.635156,
2009-03-19, 01:25:05,VALID,1003.54,VALID,0,VALID,93.5835,VALID,0,VALID,23.4877,VALID,310,VALID,0.552734,
2009-03-19, 01:26:05,VALID,1003.56,VALID,0,VALID,93.5987,VALID,0,VALID,23.4877,VALID,297,VALID,0.989844,
2009-03-19, 01:27:05,VALID,1003.6,VALID,0,VALID,93.553,VALID,0,VALID,23.4877,VALID,282,VALID,1.14922,
2009-03-19, 01:28:04,VALID,1003.6,VALID,0,VALID,93.5301,VALID,0,VALID,23.4877,VALID,297,VALID,1.72578,
2009-03-19, 01:29:04,VALID,1003.54,VALID,0,VALID,93.553,VALID,0.100563,VALID,23.4877,VALID,295,VALID,1.22266,
2009-03-19, 01:30:04,VALID,1003.58,VALID,0,VALID,93.5758,VALID,0.100563,VALID,23.5071,VALID,305,VALID,1.23438,
2009-03-19, 01:31:04,VALID,1003.56,VALID,0.5,VALID,93.5758,VALID,0,VALID,23.5071,VALID,293,VALID,1.38789,
2009-03-19, 01:32:04,VALID,1003.59,VALID,0,VALID,93.6445,VALID,0.100563,VALID,23.5071,VALID,298,VALID,0.630859,
2009-03-19, 01:33:04,VALID,1003.58,VALID,0,VALID,93.6292,VALID,0,VALID,23.5266,VALID,289,VALID,1.36758,
2009-03-19, 01:34:04,VALID,1003.57,VALID,0,VALID,93.6216,VALID,0,VALID,23.5071,VALID,276,VALID,0.761328,
2009-03-19, 01:35:04,VALID,1003.59,VALID,0,VALID,93.6674,VALID,0,VALID,23.5266,VALID,317,VALID,0.322656,
2009-03-19, 01:36:04,VALID,1003.58,VALID,0,VALID,93.6292,VALID,0.100563,VALID,23.5053,VALID,283,VALID,2.18984,
2009-03-19, 01:37:04,VALID,1003.6,VALID,0,VALID,93.7208,VALID,0.100563,VALID,23.5266,VALID,1,VALID,0.762109,
2009-03-19, 01:38:04,VALID,1003.59,VALID,0,VALID,93.7208,VALID,0.100563,VALID,23.546,VALID,319,VALID,0.4125,
2009-03-19, 01:39:04,VALID,1003.61,VALID,0,VALID,93.7742,VALID,0.100563,VALID,23.5266,VALID,303,VALID,0.289844,
2009-03-19, 01:40:04,VALID,1003.61,VALID,0,VALID,93.7742,VALID,0,VALID,23.546,VALID,293,VALID,1.25312,
2009-03-19, 01:41:04,VALID,1003.61,VALID,0,VALID,93.7742,VALID,0,VALID,23.5284,VALID,297,VALID,0.363281,
2009-03-19, 01:42:04,VALID,1003.59,VALID,0,VALID,93.7132,VALID,0,VALID,23.5089,VALID,326,VALID,1.71758,
2009-03-19, 01:43:04,VALID,1003.6,VALID,0,VALID,93.8429,VALID,0,VALID,23.5071,VALID,283,VALID,0.841797,
2009-03-19, 01:44:04,VALID,1003.62,VALID,0.5,VALID,93.7895,VALID,0,VALID,23.5089,VALID,326,VALID,0.916016,
2009-03-19, 01:45:04,VALID,1003.63,VALID,0,VALID,93.82,VALID,0,VALID,23.5478,VALID,333,VALID,1.32813,
2009-03-19, 01:46:04,VALID,1003.61,VALID,0,VALID,93.8123,VALID,0,VALID,23.5284,VALID,280,VALID,0.616406,
2009-03-19, 01:47:04,VALID,1003.6,VALID,0,VALID,93.8505,VALID,0,VALID,23.5284,VALID,285,VALID,0.643359,
2009-03-19, 01:48:04,VALID,1003.59,VALID,0,VALID,93.8505,VALID,0,VALID,23.5478,VALID,286,VALID,1.1043,
2009-03-19, 01:49:04,VALID,1003.59,VALID,0,VALID,93.8581,VALID,0,VALID,23.5284,VALID,262,VALID,0.776953,
2009-03-19, 01:50:04,VALID,1003.57,VALID,0,VALID,93.942,VALID,0,VALID,23.5478,VALID,252,VALID,0.378906,
2009-03-19, 01:51:04,VALID,1003.56,VALID,0,VALID,93.881,VALID,0,VALID,23.5478,VALID,322,VALID,0.691797,
2009-03-19, 01:52:04,VALID,1003.58,VALID,0,VALID,93.8429,VALID,0,VALID,23.546,VALID,310,VALID,1.12539,
2009-03-19, 01:53:04,VALID,1003.58,VALID,0,VALID,93.8734,VALID,0,VALID,23.5266,VALID,277,VALID,0.551953,
2009-03-19, 01:54:04,VALID,1003.56,VALID,0,VALID,93.9268,VALID,0,VALID,23.5478,VALID,274,VALID,0.432031,
2009-03-19, 01:55:04,VALID,1003.58,VALID,0,VALID,93.8352,VALID,0,VALID,23.5496,VALID,282,VALID,0.562109,
2009-03-19, 01:56:04,VALID,1003.56,VALID,0,VALID,93.9344,VALID,0,VALID,23.5284,VALID,285,VALID,0.334766,
2009-03-19, 01:57:04,VALID,1003.56,VALID,0.5,VALID,93.9344,VALID,0,VALID,23.5284,VALID,291,VALID,0.841016,
2009-03-19, 01:58:04,VALID,1003.56,VALID,0,VALID,93.8276,VALID,0,VALID,23.5284,VALID,291,VALID,1.4793,
2009-03-19, 01:59:04,VALID,1003.56,VALID,0,VALID,93.7818,VALID,0,VALID,23.5089,VALID,295,VALID,1.92773,
2009-03-19, 02:00:04,VALID,1003.51,VALID,0,VALID,93.7818,VALID,0,VALID,23.5089,VALID,289,VALID,1.21055,
2009-03-19, 02:01:04,VALID,1003.52,VALID,0,VALID,93.7437,VALID,0,VALID,23.4894,VALID,262,VALID,2.20703,
2009-03-19, 02:02:04,VALID,1003.53,VALID,0,VALID,93.7742,VALID,0,VALID,23.4894,VALID,321,VALID,1.32969,
2009-03-19, 02:03:04,VALID,1003.52,VALID,0,VALID,93.6826,VALID,0,VALID,23.5089,VALID,316,VALID,1.38789,
2009-03-19, 02:04:04,VALID,1003.47,VALID,0,VALID,93.6903,VALID,0,VALID,23.5089,VALID,297,VALID,1.19219,
2009-03-19, 02:05:04,VALID,1003.42,VALID,0,VALID,93.6598,VALID,0,VALID,23.5089,VALID,306,VALID,1.0457,
2009-03-19, 02:06:04,VALID,1003.46,VALID,0,VALID,93.6216,VALID,0,VALID,23.5107,VALID,293,VALID,1.49766,
2009-03-19, 02:07:04,VALID,1003.46,VALID,0,VALID,93.6598,VALID,0,VALID,23.4894,VALID,311,VALID,0.791406,
2009-03-19, 02:08:04,VALID,1003.44,VALID,0,VALID,93.5758,VALID,0,VALID,23.4894,VALID,280,VALID,1.91523,
2009-03-19, 02:09:04,VALID,1003.4,VALID,0,VALID,93.5911,VALID,0,VALID,23.4682,VALID,294,VALID,0.713672,
2009-03-19, 02:10:04,VALID,1003.41,VALID,0,VALID,93.5224,VALID,0,VALID,23.47,VALID,296,VALID,1.39297,
2009-03-19, 02:11:04,VALID,1003.37,VALID,0,VALID,93.3928,VALID,0,VALID,23.4505,VALID,295,VALID,1.63125,
2009-03-19, 02:12:04,VALID,1003.34,VALID,0,VALID,93.469,VALID,0,VALID,23.47,VALID,358,VALID,0.199219,
2009-03-19, 02:13:04,VALID,1003.3,VALID,0,VALID,93.3775,VALID,0,VALID,23.4487,VALID,352,VALID,0.819141,
2009-03-19, 02:14:04,VALID,1003.31,VALID,0,VALID,93.4309,VALID,0,VALID,23.4894,VALID,287,VALID,0.914063,
2009-03-19, 02:15:04,VALID,1003.3,VALID,0,VALID,93.4538,VALID,0,VALID,23.4894,VALID,287,VALID,0.853125,
2009-03-19, 02:16:04,VALID,1003.32,VALID,0,VALID,93.4309,VALID,0,VALID,23.4894,VALID,312,VALID,0.853125,
2009-03-19, 02:17:04,VALID,1003.29,VALID,0,VALID,93.4233,VALID,0,VALID,23.47,VALID,275,VALID,0.362109,
2009-03-19, 02:18:04,VALID,1003.24,VALID,0,VALID,93.3546,VALID,0,VALID,23.47,VALID,320,VALID,1.08203,
2009-03-19, 02:19:04,VALID,1003.25,VALID,0,VALID,93.3546,VALID,0,VALID,23.47,VALID,325,VALID,0.458203,
2009-03-19, 02:20:04,VALID,1003.21,VALID,0,VALID,93.4233,VALID,0,VALID,23.47,VALID,326,VALID,0.208984,
2009-03-19, 02:21:04,VALID,1003.21,VALID,0,VALID,93.4462,VALID,0,VALID,23.47,VALID,306,VALID,0.690625,
2009-03-19, 02:22:04,VALID,1003.17,VALID,0,VALID,93.4538,VALID,0,VALID,23.4505,VALID,279,VALID,0.882031,
2009-03-19, 02:23:04,VALID,1003.18,VALID,0,VALID,93.469,VALID,0,VALID,23.4505,VALID,338,VALID,0.422656,
2009-03-19, 02:24:04,VALID,1003.14,VALID,0,VALID,93.3775,VALID,0,VALID,23.4505,VALID,299,VALID,1.30898,
2009-03-19, 02:25:04,VALID,1003.16,VALID,0,VALID,93.4156,VALID,0,VALID,23.4523,VALID,56,VALID,0.79375,
2009-03-19, 02:26:04,VALID,1003.11,VALID,0,VALID,93.4309,VALID,0,VALID,23.4098,VALID,316,VALID,0.112109,
2009-03-19, 02:27:04,VALID,1003.09,VALID,0,VALID,93.469,VALID,0,VALID,23.4505,VALID,290,VALID,0.338672,
2009-03-19, 02:28:04,VALID,1003.07,VALID,0,VALID,93.4462,VALID,0,VALID,23.4311,VALID,286,VALID,0.684375,
2009-03-19, 02:29:04,VALID,1003.06,VALID,0,VALID,93.4462,VALID,0,VALID,23.4311,VALID,1,VALID,0.840625,
2009-03-19, 02:30:04,VALID,1003.07,VALID,0,VALID,93.469,VALID,0,VALID,23.4311,VALID,347,VALID,0.194141,
2009-03-19, 02:31:04,VALID,1003.04,VALID,0,VALID,93.4996,VALID,0,VALID,23.4311,VALID,309,VALID,0.441016,
2009-03-19, 02:32:04,VALID,1003.05,VALID,0,VALID,93.4996,VALID,0,VALID,23.4311,VALID,334,VALID,0.963281,
2009-03-19, 02:33:04,VALID,1003.03,VALID,0,VALID,93.4996,VALID,0,VALID,23.4116,VALID,301,VALID,0.567578,
2009-03-19, 02:34:04,VALID,1003.01,VALID,0,VALID,93.5758,VALID,0,VALID,23.4116,VALID,300,VALID,0.0558594,
2009-03-19, 02:35:04,VALID,1003,VALID,0,VALID,93.5911,VALID,0,VALID,23.4311,VALID,306,VALID,0.260547,
2009-03-19, 02:36:04,VALID,1002.97,VALID,0,VALID,93.553,VALID,0,VALID,23.4116,VALID,295,VALID,0.651172,
2009-03-19, 02:37:04,VALID,1002.96,VALID,0,VALID,93.5301,VALID,0,VALID,23.4116,VALID,290,VALID,1.45898,
2009-03-19, 02:38:04,VALID,1002.97,VALID,0,VALID,93.4919,VALID,0,VALID,23.4116,VALID,304,VALID,0.526953,
2009-03-19, 02:39:04,VALID,1002.96,VALID,0,VALID,93.4233,VALID,0,VALID,23.3709,VALID,272,VALID,0.824609,
2009-03-19, 02:40:04,VALID,1002.91,VALID,0,VALID,93.4156,VALID,0,VALID,23.3921,VALID,30,VALID,1.19102,
2009-03-19, 02:41:04,VALID,1002.92,VALID,0,VALID,93.3851,VALID,0,VALID,23.408,VALID,346,VALID,0.660547,
2009-03-19, 02:42:04,VALID,1002.91,VALID,0,VALID,93.3622,VALID,0,VALID,23.4293,VALID,305,VALID,0.659375,
2009-03-19, 02:43:04,VALID,1002.9,VALID,0,VALID,93.4004,VALID,0.100563,VALID,23.408,VALID,341,VALID,0.882813,
2009-03-19, 02:44:04,VALID,1002.91,VALID,0,VALID,93.408,VALID,0,VALID,23.4098,VALID,340,VALID,0.839063,
2009-03-19, 02:45:04,VALID,1002.86,VALID,0,VALID,93.3088,VALID,0.100563,VALID,23.3886,VALID,328,VALID,2.12578,
2009-03-19, 02:46:04,VALID,1002.85,VALID,0,VALID,93.347,VALID,0.100563,VALID,23.4293,VALID,352,VALID,0.789453,
2009-03-19, 02:47:04,VALID,1002.83,VALID,0,VALID,93.3088,VALID,0,VALID,23.3904,VALID,334,VALID,0.875391,
2009-03-19, 02:48:04,VALID,1002.84,VALID,0,VALID,93.3546,VALID,0.100563,VALID,23.4098,VALID,346,VALID,0.525781,
2009-03-19, 02:49:04,VALID,1002.87,VALID,0,VALID,93.2402,VALID,0.100563,VALID,23.3904,VALID,11,VALID,1.04766,
2009-03-19, 02:50:04,VALID,1002.86,VALID,0,VALID,93.2631,VALID,0.100563,VALID,23.3904,VALID,288,VALID,0.528906,
2009-03-19, 02:51:04,VALID,1002.89,VALID,0,VALID,93.1791,VALID,0.100563,VALID,23.3904,VALID,294,VALID,1.40547,
2009-03-19, 02:52:04,VALID,1002.88,VALID,0,VALID,93.1791,VALID,0.100563,VALID,23.3904,VALID,323,VALID,0.547266,
2009-03-19, 02:53:04,VALID,1002.88,VALID,0,VALID,93.0952,VALID,0.100563,VALID,23.3709,VALID,295,VALID,1.12305,
2009-03-19, 02:54:04,VALID,1002.89,VALID,0,VALID,93.1257,VALID,0,VALID,23.3709,VALID,313,VALID,0.935938,
2009-03-19, 02:55:04,VALID,1002.9,VALID,0,VALID,93.1563,VALID,0.100563,VALID,23.3691,VALID,297,VALID,0.889844,
2009-03-19, 02:56:04,VALID,1002.88,VALID,0,VALID,93.1105,VALID,0,VALID,23.3727,VALID,348,VALID,0.667578,
2009-03-19, 02:57:04,VALID,1002.91,VALID,0,VALID,93.0876,VALID,0,VALID,23.3727,VALID,355,VALID,1.38242,
2009-03-19, 02:58:04,VALID,1002.89,VALID,0,VALID,93.1257,VALID,0,VALID,23.3514,VALID,357,VALID,0.428125,
2009-03-19, 02:59:04,VALID,1002.9,VALID,0,VALID,93.0876,VALID,0,VALID,23.3532,VALID,352,VALID,0.56875,
2009-03-19, 03:00:04,VALID,1002.89,VALID,0,VALID,93.1639,VALID,0,VALID,23.3727,VALID,313,VALID,0.587891,
2009-03-19, 03:01:04,VALID,1002.89,VALID,0,VALID,93.141,VALID,0,VALID,23.3514,VALID,359,VALID,0.562891,
2009-03-19, 03:02:04,VALID,1002.9,VALID,0,VALID,93.1486,VALID,0,VALID,23.3532,VALID,351,VALID,0.600781,
2009-03-19, 03:03:04,VALID,1002.94,VALID,0,VALID,93.1563,VALID,0,VALID,23.3337,VALID,312,VALID,0.780469,
2009-03-19, 03:04:04,VALID,1002.92,VALID,0,VALID,93.1715,VALID,0,VALID,23.3337,VALID,272,VALID,0.335547,
2009-03-19, 03:05:04,VALID,1002.91,VALID,0,VALID,93.2478,VALID,0,VALID,23.3744,VALID,41,VALID,0.588672,
2009-03-19, 03:06:04,VALID,1002.94,VALID,0,VALID,93.1486,VALID,0,VALID,23.3337,VALID,359,VALID,1.24883,
2009-03-19, 03:07:04,VALID,1002.88,VALID,0,VALID,93.1715,VALID,0,VALID,23.3143,VALID,346,VALID,1.11523,
2009-03-19, 03:08:04,VALID,1002.88,VALID,0,VALID,93.1563,VALID,0,VALID,23.2948,VALID,352,VALID,1.08125,
2009-03-19, 03:09:04,VALID,1002.86,VALID,0,VALID,93.1181,VALID,0,VALID,23.2931,VALID,1,VALID,1.4207,
2009-03-19, 03:10:04,VALID,1002.84,VALID,0,VALID,93.1029,VALID,0,VALID,23.3143,VALID,357,VALID,1.2707,
2009-03-19, 03:11:04,VALID,1002.84,VALID,0,VALID,93.1868,VALID,0,VALID,23.2948,VALID,358,VALID,1.00547,
2009-03-19, 03:12:04,VALID,1002.79,VALID,0,VALID,93.1639,VALID,0,VALID,23.2754,VALID,358,VALID,1.13906,
2009-03-19, 03:13:04,VALID,1002.78,VALID,0,VALID,93.2478,VALID,0,VALID,23.2754,VALID,2,VALID,0.953906,
2009-03-19, 03:14:04,VALID,1002.76,VALID,0,VALID,93.3317,VALID,0,VALID,23.2559,VALID,353,VALID,1.13477,
2009-03-19, 03:15:04,VALID,1002.75,VALID,0,VALID,93.347,VALID,0,VALID,23.217,VALID,352,VALID,1.28281,
2009-03-19, 03:16:04,VALID,1002.72,VALID,0,VALID,93.3928,VALID,0,VALID,23.217,VALID,3,VALID,1.44687,
2009-03-19, 03:17:04,VALID,1002.72,VALID,0,VALID,93.4462,VALID,0,VALID,23.1957,VALID,348,VALID,1.32734,
2009-03-19, 03:18:04,VALID,1002.67,VALID,0.5,VALID,93.5224,VALID,0,VALID,23.2382,VALID,17,VALID,0.858984,
2009-03-19, 03:19:04,VALID,1002.67,VALID,0,VALID,93.5758,VALID,0,VALID,23.217,VALID,351,VALID,0.941797,
2009-03-19, 03:20:04,VALID,1002.67,VALID,0,VALID,93.6216,VALID,0,VALID,23.1975,VALID,353,VALID,0.673047,
2009-03-19, 03:21:04,VALID,1002.68,VALID,0,VALID,93.6292,VALID,0,VALID,23.178,VALID,352,VALID,1.10117,
2009-03-19, 03:22:04,VALID,1002.66,VALID,0,VALID,93.675,VALID,0,VALID,23.178,VALID,355,VALID,1.12344,
2009-03-19, 03:23:04,VALID,1002.66,VALID,0,VALID,93.7132,VALID,0,VALID,23.178,VALID,359,VALID,0.892578,
2009-03-19, 03:24:04,VALID,1002.65,VALID,0,VALID,93.6979,VALID,0,VALID,23.1975,VALID,343,VALID,1.22383,
2009-03-19, 03:25:04,VALID,1002.63,VALID,0,VALID,93.6979,VALID,0,VALID,23.178,VALID,342,VALID,1.67891,
2009-03-19, 03:26:04,VALID,1002.63,VALID,0,VALID,93.7132,VALID,0,VALID,23.178,VALID,8,VALID,1.73359,
2009-03-19, 03:27:04,VALID,1002.68,VALID,0,VALID,93.7055,VALID,0,VALID,23.1975,VALID,351,VALID,1.27148,
2009-03-19, 03:28:04,VALID,1002.63,VALID,0,VALID,93.6521,VALID,0,VALID,23.1763,VALID,355,VALID,1.22344,
2009-03-19, 03:29:04,VALID,1002.61,VALID,0,VALID,93.6369,VALID,0,VALID,23.1975,VALID,1,VALID,1.01758,
2009-03-19, 03:30:04,VALID,1002.61,VALID,0,VALID,93.5835,VALID,0,VALID,23.1975,VALID,352,VALID,2.36328,
2009-03-19, 03:31:04,VALID,1002.61,VALID,0,VALID,93.6064,VALID,0,VALID,23.1975,VALID,18,VALID,0.85,
2009-03-19, 03:32:04,VALID,1002.56,VALID,0,VALID,93.5606,VALID,0,VALID,23.217,VALID,64,VALID,0.748047,
2009-03-19, 03:33:04,VALID,1002.62,VALID,0,VALID,93.553,VALID,0,VALID,23.1975,VALID,332,VALID,0.875781,
2009-03-19, 03:34:04,VALID,1002.63,VALID,0,VALID,93.4614,VALID,0,VALID,23.1975,VALID,351,VALID,1.25547,
2009-03-19, 03:35:04,VALID,1002.66,VALID,0,VALID,93.4233,VALID,0,VALID,23.1975,VALID,359,VALID,1.57344,
2009-03-19, 03:36:04,VALID,1002.69,VALID,0,VALID,93.3622,VALID,0,VALID,23.217,VALID,358,VALID,1.94258,
2009-03-19, 03:37:04,VALID,1002.66,VALID,0,VALID,93.2859,VALID,0,VALID,23.1975,VALID,360,VALID,1.60703,
2009-03-19, 03:38:04,VALID,1002.63,VALID,0,VALID,93.2783,VALID,0,VALID,23.2364,VALID,354,VALID,0.627344,
2009-03-19, 03:39:04,VALID,1002.64,VALID,0,VALID,93.2402,VALID,0,VALID,23.217,VALID,346,VALID,0.932031,
2009-03-19, 03:40:04,VALID,1002.63,VALID,0,VALID,93.1944,VALID,0,VALID,23.217,VALID,8,VALID,0.879297,
2009-03-19, 03:41:04,VALID,1002.65,VALID,0,VALID,93.2097,VALID,0.100563,VALID,23.2364,VALID,313,VALID,0.491016,
2009-03-19, 03:42:04,VALID,1002.68,VALID,0,VALID,93.1334,VALID,0.100563,VALID,23.2152,VALID,358,VALID,1.16094,
2009-03-19, 03:43:04,VALID,1002.65,VALID,0,VALID,93.1257,VALID,0,VALID,23.2347,VALID,319,VALID,1.11445,